| time (UTC) | temp C | wind direction | speed KPH | gust KPH | rain 1hr cm | rain 24hr cm | rain mn cm | humidity % | barometer mb |
| 20260505070520 | 8 | 55 | 25.7 | 38.6 | 0.00 | 0.00 | 0.00 | 75 | 1011.4 |
| 20260505070038 | 8 | 59 | 25.7 | 46.7 | 0.00 | 0.00 | 0.00 | 75 | 1011.3 |
| 20260505065521 | 8 | 67 | 32.2 | 46.7 | 0.00 | 0.00 | 0.00 | 73 | 1011.1 |
| 20260505065018 | 8 | 59 | 29.0 | 43.5 | 0.00 | 0.00 | 0.00 | 72 | 1011.0 |
| 20260505064539 | 9 | 43 | 30.6 | 41.8 | 0.00 | 0.00 | 0.00 | 70 | 1011.1 |
| 20260505064022 | 10 | 56 | 30.6 | 41.8 | 0.00 | 0.00 | 0.00 | 68 | 1010.8 |
| 20260505063519 | 10 | 40 | 22.5 | 35.4 | 0.00 | 0.00 | 0.00 | 66 | 1010.9 |
| 20260505063046 | 10 | 44 | 24.1 | 35.4 | 0.00 | 0.00 | 0.00 | 64 | 1010.8 |
| 20260505062521 | 10 | 55 | 22.5 | 32.2 | 0.00 | 0.00 | 0.00 | 63 | 1010.9 |
| 20260505062019 | 10 | 67 | 22.5 | 32.2 | 0.00 | 0.00 | 0.00 | 62 | 1010.9 |
| 20260505061540 | 10 | 51 | 22.5 | 29.0 | 0.00 | 0.00 | 0.00 | 61 | 1010.6 |
| 20260505061022 | 10 | 67 | 20.9 | 35.4 | 0.00 | 0.00 | 0.00 | 61 | 1010.3 |
| 20260505060519 | 10 | 64 | 25.7 | 35.4 | 0.00 | 0.00 | 0.00 | 61 | 1009.9 |
| 20260505060045 | 11 | 48 | 22.5 | 37.0 | 0.00 | 0.00 | 0.00 | 60 | 1009.6 |
| 20260505055520 | 11 | 61 | 29.0 | 38.6 | 0.00 | 0.00 | 0.00 | 60 | 1009.4 |
| 20260505055020 | 11 | 63 | 22.5 | 38.6 | 0.00 | 0.00 | 0.00 | 60 | 1009.2 |
| 20260505054547 | 11 | 51 | 30.6 | 40.2 | 0.00 | 0.00 | 0.00 | 60 | 1009.2 |
| 20260505054022 | 11 | 69 | 30.6 | 40.2 | 0.00 | 0.00 | 0.00 | 60 | 1009.0 |
| 20260505053522 | 11 | 68 | 27.4 | 40.2 | 0.00 | 0.00 | 0.00 | 59 | 1008.9 |
| 20260505053044 | 11 | 63 | 29.0 | 38.6 | 0.00 | 0.00 | 0.00 | 59 | 1009.0 |
| 20260505052525 | 11 | 51 | 25.7 | 33.8 | 0.00 | 0.00 | 0.00 | 59 | 1008.9 |
| 20260505052021 | 11 | 74 | 22.5 | 33.8 | 0.00 | 0.00 | 0.00 | 59 | 1008.9 |
| 20260505051540 | 11 | 69 | 25.7 | 40.2 | 0.00 | 0.00 | 0.00 | 58 | 1008.7 |
| 20260505051020 | 11 | 80 | 25.7 | 41.8 | 0.00 | 0.00 | 0.00 | 59 | 1008.8 |
| 20260505050522 | 11 | 86 | 29.0 | 41.8 | 0.00 | 0.00 | 0.00 | 58 | 1008.6 |
| 20260505041540 | 13 | 49 | 30.6 | 43.5 | 0.00 | 0.00 | 0.00 | 51 | 1008.6 |
| 20260505041022 | 13 | 59 | 30.6 | 43.5 | 0.00 | 0.00 | 0.00 | 50 | 1008.4 |
| 20260505040522 | 13 | 60 | 22.5 | 37.0 | 0.00 | 0.00 | 0.00 | 49 | 1008.5 |
| 20260505040038 | 14 | 51 | 27.4 | 40.2 | 0.00 | 0.00 | 0.00 | 49 | 1008.6 |
| 20260505035521 | 14 | 58 | 30.6 | 41.8 | 0.00 | 0.00 | 0.00 | 48 | 1008.5 |
| 20260505035019 | 14 | 86 | 25.7 | 41.8 | 0.00 | 0.00 | 0.00 | 48 | 1008.3 |
| 20260505034547 | 14 | 74 | 29.0 | 43.5 | 0.00 | 0.00 | 0.00 | 47 | 1008.3 |
| 20260505034019 | 14 | 67 | 33.8 | 43.5 | 0.00 | 0.00 | 0.00 | 47 | 1008.2 |
| 20260505033519 | 14 | 76 | 27.4 | 43.5 | 0.00 | 0.00 | 0.00 | 47 | 1008.3 |
| 20260505033041 | 15 | 57 | 29.0 | 43.5 | 0.00 | 0.00 | 0.00 | 47 | 1008.2 |
| 20260505032519 | 15 | 61 | 32.2 | 43.5 | 0.00 | 0.00 | 0.00 | 46 | 1008.0 |
| 20260505032019 | 15 | 64 | 30.6 | 43.5 | 0.00 | 0.00 | 0.00 | 46 | 1008.0 |
| 20260505031544 | 15 | 59 | 33.8 | 46.7 | 0.00 | 0.00 | 0.00 | 46 | 1008.0 |
| 20260505031025 | 15 | 46 | 29.0 | 53.1 | 0.00 | 0.00 | 0.00 | 46 | 1008.0 |
| 20260505030522 | 15 | 64 | 37.0 | 53.1 | 0.00 | 0.00 | 0.00 | 45 | 1007.6 |
| 20260505030038 | 15 | 67 | 37.0 | 53.1 | 0.00 | 0.00 | 0.00 | 45 | 1007.5 |
| 20260505025523 | 15 | 56 | 35.4 | 51.5 | 0.00 | 0.00 | 0.00 | 45 | 1007.5 |
| 20260505025021 | 15 | 58 | 33.8 | 51.5 | 0.00 | 0.00 | 0.00 | 45 | 1007.4 |
| 20260505024533 | 15 | 65 | 32.2 | 48.3 | 0.00 | 0.00 | 0.00 | 44 | 1007.4 |
| 20260505024022 | 16 | 61 | 30.6 | 45.1 | 0.00 | 0.00 | 0.00 | 44 | 1007.3 |
| 20260505023521 | 16 | 58 | 30.6 | 46.7 | 0.00 | 0.00 | 0.00 | 44 | 1007.0 |
| 20260505023038 | 16 | 51 | 32.2 | 49.9 | 0.00 | 0.00 | 0.00 | 43 | 1006.8 |
| 20260505022519 | 16 | 58 | 35.4 | 49.9 | 0.00 | 0.00 | 0.00 | 43 | 1006.7 |
| 20260505022019 | 16 | 74 | 35.4 | 51.5 | 0.00 | 0.00 | 0.00 | 43 | 1006.7 |
| 20260505021544 | 16 | 52 | 35.4 | 51.5 | 0.00 | 0.00 | 0.00 | 43 | 1006.7 |
| 20260505021019 | 16 | 60 | 35.4 | 49.9 | 0.00 | 0.00 | 0.00 | 43 | 1006.6 |
| 20260505020521 | 16 | 46 | 33.8 | 51.5 | 0.00 | 0.00 | 0.00 | 43 | 1006.4 |
| 20260505020043 | 16 | 59 | 35.4 | 51.5 | 0.00 | 0.00 | 0.00 | 43 | 1006.1 |
| 20260505015523 | 17 | 59 | 35.4 | 53.1 | 0.00 | 0.00 | 0.00 | 43 | 1005.9 |
| 20260505015022 | 17 | 49 | 37.0 | 53.1 | 0.00 | 0.00 | 0.00 | 42 | 1005.8 |
| 20260505014542 | 17 | 75 | 35.4 | 59.5 | 0.00 | 0.00 | 0.00 | 42 | 1005.6 |
| 20260505014021 | 17 | 64 | 38.6 | 59.5 | 0.00 | 0.00 | 0.00 | 41 | 1005.5 |
| 20260505013522 | 17 | 57 | 38.6 | 59.5 | 0.00 | 0.00 | 0.00 | 41 | 1005.4 |
| 20260505013039 | 17 | 61 | 45.1 | 59.5 | 0.00 | 0.00 | 0.00 | 40 | 1005.4 |
| 20260505012522 | 18 | 58 | 45.1 | 57.9 | 0.00 | 0.00 | 0.00 | 40 | 1005.3 |
| 20260505012022 | 18 | 45 | 35.4 | 57.9 | 0.00 | 0.00 | 0.00 | 39 | 1005.3 |
| 20260505011540 | 18 | 59 | 40.2 | 57.9 | 0.00 | 0.00 | 0.00 | 39 | 1005.0 |
| 20260505011021 | 18 | 60 | 43.5 | 56.3 | 0.00 | 0.00 | 0.00 | 39 | 1004.6 |
| 20260505010521 | 18 | 64 | 38.6 | 56.3 | 0.00 | 0.00 | 0.00 | 39 | 1004.6 |
| 20260505005521 | 19 | 77 | 35.4 | 57.9 | 0.00 | 0.00 | 0.00 | 38 | 1004.7 |
| 20260505005023 | 19 | 66 | 45.1 | 57.9 | 0.00 | 0.00 | 0.00 | 37 | 1004.5 |
| 20260505004535 | 20 | 51 | 41.8 | 57.9 | 0.00 | 0.00 | 0.00 | 37 | 1004.5 |
| 20260505004019 | 20 | 44 | 41.8 | 59.5 | 0.00 | 0.00 | 0.00 | 37 | 1004.2 |
| 20260505003520 | 20 | 59 | 41.8 | 59.5 | 0.00 | 0.00 | 0.00 | 37 | 1004.1 |
| 20260505003046 | 20 | 53 | 43.5 | 59.5 | 0.00 | 0.00 | 0.00 | 37 | 1003.9 |
| 20260505002521 | 20 | 50 | 43.5 | 59.5 | 0.00 | 0.00 | 0.00 | 36 | 1004.1 |
| 20260505002022 | 21 | 33 | 41.8 | 54.7 | 0.00 | 0.00 | 0.00 | 35 | 1004.3 |
| 20260505001540 | 21 | 69 | 24.1 | 45.1 | 0.00 | 0.00 | 0.00 | 35 | 1004.4 |
| 20260505001021 | 21 | 341 | 25.7 | 45.1 | 0.00 | 0.00 | 0.00 | 34 | 1004.6 |
| 20260505000522 | 21 | 42 | 22.5 | 45.1 | 0.00 | 0.00 | 0.00 | 34 | 1004.8 |
| 20260505000046 | 21 | 84 | 22.5 | 43.5 | 0.00 | 0.00 | 0.00 | 33 | 1004.6 |
| 20260504235520 | 22 | 30 | 19.3 | 41.8 | 0.00 | 0.00 | 0.00 | 32 | 1004.4 |
| 20260504235020 | 22 | 46 | 19.3 | 41.8 | 0.00 | 0.00 | 0.00 | 30 | 1004.2 |
| 20260504234539 | 22 | 16 | 20.9 | 38.6 | 0.00 | 0.00 | 0.00 | 27 | 1004.2 |
| 20260504234021 | 22 | 63 | 16.1 | 29.0 | 0.00 | 0.00 | 0.00 | 26 | 1004.1 |
| 20260504233521 | 23 | 57 | 6.4 | 29.0 | 0.00 | 0.00 | 0.00 | 25 | 1004.1 |
| 20260504233035 | 23 | 349 | 9.7 | 29.0 | 0.00 | 0.00 | 0.00 | 25 | 1004.1 |
| 20260504232523 | 23 | 13 | 12.9 | 38.6 | 0.00 | 0.00 | 0.00 | 24 | 1004.2 |
| 20260504232021 | 23 | 323 | 12.9 | 38.6 | 0.00 | 0.00 | 0.00 | 24 | 1004.0 |
| 20260504231542 | 23 | 18 | 20.9 | 37.0 | 0.00 | 0.00 | 0.00 | 23 | 1003.7 |
| 20260504231020 | 23 | 352 | 17.7 | 33.8 | 0.00 | 0.00 | 0.00 | 22 | 1003.6 |
| 20260504230520 | 24 | 34 | 16.1 | 33.8 | 0.00 | 0.00 | 0.00 | 21 | 1003.5 |
| 20260504230046 | 24 | 347 | 12.9 | 29.0 | 0.00 | 0.00 | 0.00 | 21 | 1003.4 |
| 20260504225521 | 24 | 292 | 6.4 | 20.9 | 0.00 | 0.00 | 0.00 | 21 | 1003.3 |
| 20260504225021 | 24 | 196 | 6.4 | 20.9 | 0.00 | 0.00 | 0.00 | 20 | 1003.1 |
| 20260504224540 | 25 | 208 | 11.3 | 20.9 | 0.00 | 0.00 | 0.00 | 21 | 1003.0 |
| 20260504224020 | 25 | 182 | 12.9 | 25.7 | 0.00 | 0.00 | 0.00 | 20 | 1003.0 |
| 20260504223519 | 25 | 176 | 14.5 | 25.7 | 0.00 | 0.00 | 0.00 | 21 | 1002.9 |
| 20260504223037 | 25 | 221 | 12.9 | 19.3 | 0.00 | 0.00 | 0.00 | 19 | 1002.9 |
| 20260504222523 | 25 | 240 | 8.0 | 14.5 | 0.00 | 0.00 | 0.00 | 19 | 1002.9 |
| 20260504222018 | 26 | 254 | 6.4 | 17.7 | 0.00 | 0.00 | 0.00 | 18 | 1002.9 |
| 20260504221551 | 26 | 352 | 8.0 | 17.7 | 0.00 | 0.00 | 0.00 | 19 | 1002.9 |
| 20260504221019 | 26 | 314 | 8.0 | 17.7 | 0.00 | 0.00 | 0.00 | 18 | 1002.9 |
| 20260504220520 | 26 | 307 | 9.7 | 22.5 | 0.00 | 0.00 | 0.00 | 18 | 1002.9 |
| 20260504220035 | 26 | 312 | 6.4 | 22.5 | 0.00 | 0.00 | 0.00 | 17 | 1002.9 |
| 20260504215522 | 26 | 304 | 12.9 | 22.5 | 0.00 | 0.00 | 0.00 | 17 | 1002.9 |
| 20260504215035 | 26 | 298 | 9.7 | 14.5 | 0.00 | 0.00 | 0.00 | 18 | 1002.9 |
| 20260504214543 | 26 | 333 | 3.2 | 14.5 | 0.00 | 0.00 | 0.00 | 18 | 1002.9 |
| 20260504214021 | 26 | 229 | 4.8 | 20.9 | 0.00 | 0.00 | 0.00 | 18 | 1003.0 |
| 20260504213521 | 26 | 238 | 8.0 | 22.5 | 0.00 | 0.00 | 0.00 | 18 | 1003.1 |
| 20260504213057 | 26 | 311 | 11.3 | 22.5 | 0.00 | 0.00 | 0.00 | 18 | 1003.1 |
| 20260504212519 | 26 | 349 | 6.4 | 17.7 | 0.00 | 0.00 | 0.00 | 18 | 1003.1 |
| 20260504212021 | 27 | 300 | 4.8 | 16.1 | 0.00 | 0.00 | 0.00 | 18 | 1003.3 |
| 20260504211541 | 27 | 301 | 6.4 | 17.7 | 0.00 | 0.00 | 0.00 | 18 | 1003.3 |
| 20260504211022 | 26 | 347 | 8.0 | 17.7 | 0.00 | 0.00 | 0.00 | 18 | 1003.3 |
| 20260504210522 | 27 | 5 | 6.4 | 19.3 | 0.00 | 0.00 | 0.00 | 18 | 1003.5 |
| 20260504210036 | 27 | 344 | 11.3 | 19.3 | 0.00 | 0.00 | 0.00 | 18 | 1003.5 |
| 20260504205522 | 28 | 309 | 8.0 | 17.7 | 0.00 | 0.00 | 0.00 | 18 | 1003.5 |
| 20260504205019 | 27 | 96 | 6.4 | 16.1 | 0.00 | 0.00 | 0.00 | 18 | 1003.6 |
| 20260504204535 | 27 | 58 | 8.0 | 16.1 | 0.00 | 0.00 | 0.00 | 20 | 1003.5 |
| 20260504204019 | 27 | 24 | 6.4 | 17.7 | 0.00 | 0.00 | 0.00 | 20 | 1003.6 |
| 20260504203524 | 27 | 123 | 8.0 | 17.7 | 0.00 | 0.00 | 0.00 | 19 | 1003.6 |
| 20260504203048 | 26 | 5 | 6.4 | 17.7 | 0.00 | 0.00 | 0.00 | 19 | 1003.5 |
| 20260504202521 | 26 | 118 | 0.0 | 6.4 | 0.00 | 0.00 | 0.00 | 19 | 1003.7 |
| 20260504202021 | 25 | 0 | 1.6 | 17.7 | 0.00 | 0.00 | 0.00 | 18 | 1003.9 |
| 20260504201540 | 25 | 276 | 4.8 | 20.9 | 0.00 | 0.00 | 0.00 | 19 | 1004.0 |
| 20260504201021 | 25 | 294 | 11.3 | 20.9 | 0.00 | 0.00 | 0.00 | 19 | 1004.2 |
| 20260504200525 | 26 | 307 | 12.9 | 20.9 | 0.00 | 0.00 | 0.00 | 18 | 1004.2 |
| 20260504200040 | 26 | 92 | 3.2 | 14.5 | 0.00 | 0.00 | 0.00 | 19 | 1004.2 |
| 20260504195519 | 26 | 322 | 4.8 | 14.5 | 0.00 | 0.00 | 0.00 | 19 | 1004.4 |
| 20260504195019 | 26 | 291 | 8.0 | 20.9 | 0.00 | 0.00 | 0.00 | 19 | 1004.3 |
| 20260504194542 | 26 | 252 | 8.0 | 20.9 | 0.00 | 0.00 | 0.00 | 19 | 1004.4 |
| 20260504194023 | 26 | 344 | 8.0 | 20.9 | 0.00 | 0.00 | 0.00 | 18 | 1004.3 |
| 20260504193524 | 26 | 9 | 12.9 | 20.9 | 0.00 | 0.00 | 0.00 | 18 | 1004.2 |
| 20260504193035 | 26 | 341 | 6.4 | 19.3 | 0.00 | 0.00 | 0.00 | 20 | 1004.3 |
| 20260504192521 | 26 | 69 | 6.4 | 17.7 | 0.00 | 0.00 | 0.00 | 20 | 1004.4 |
| 20260504192023 | 26 | 326 | 6.4 | 17.7 | 0.00 | 0.00 | 0.00 | 20 | 1004.4 |
| 20260504191539 | 26 | 42 | 8.0 | 17.7 | 0.00 | 0.00 | 0.00 | 20 | 1004.4 |
| 20260504191021 | 25 | 352 | 6.4 | 19.3 | 0.00 | 0.00 | 0.00 | 20 | 1004.5 |
| 20260504190521 | 25 | 277 | 11.3 | 29.0 | 0.00 | 0.00 | 0.00 | 19 | 1004.6 |
| 20260504190042 | 26 | 344 | 11.3 | 29.0 | 0.00 | 0.00 | 0.00 | 19 | 1004.6 |
| 20260504185521 | 26 | 302 | 4.8 | 29.0 | 0.00 | 0.00 | 0.00 | 22 | 1004.6 |
| 20260504185025 | 26 | 0 | 3.2 | 12.9 | 0.00 | 0.00 | 0.00 | 22 | 1004.8 |
| 20260504184540 | 25 | 45 | 3.2 | 12.9 | 0.00 | 0.00 | 0.00 | 23 | 1004.8 |
| 20260504184019 | 25 | 132 | 4.8 | 12.9 | 0.00 | 0.00 | 0.00 | 22 | 1004.9 |
| 20260504183532 | 25 | 105 | 1.6 | 14.5 | 0.00 | 0.00 | 0.00 | 24 | 1005.1 |
| 20260504183035 | 25 | 185 | 4.8 | 16.1 | 0.00 | 0.00 | 0.00 | 22 | 1005.2 |
| 20260504182522 | 25 | 15 | 4.8 | 17.7 | 0.00 | 0.00 | 0.00 | 24 | 1005.4 |
| 20260504182021 | 25 | 78 | 8.0 | 17.7 | 0.00 | 0.00 | 0.00 | 25 | 1005.4 |
| 20260504181541 | 25 | 55 | 11.3 | 19.3 | 0.00 | 0.00 | 0.00 | 27 | 1005.4 |
| 20260504181027 | 24 | 146 | 9.7 | 19.3 | 0.00 | 0.00 | 0.00 | 28 | 1005.6 |
| 20260504180522 | 24 | 109 | 12.9 | 19.3 | 0.00 | 0.00 | 0.00 | 27 | 1005.6 |
| 20260504180049 | 24 | 108 | 9.7 | 16.1 | 0.00 | 0.00 | 0.00 | 27 | 1005.7 |
| 20260504175521 | 24 | 95 | 9.7 | 16.1 | 0.00 | 0.00 | 0.00 | 29 | 1005.8 |
| 20260504175024 | 24 | 69 | 4.8 | 14.5 | 0.00 | 0.00 | 0.00 | 27 | 1005.9 |
| 20260504174544 | 24 | 55 | 6.4 | 25.7 | 0.00 | 0.00 | 0.00 | 28 | 1006.0 |
| 20260504174022 | 24 | 121 | 9.7 | 25.7 | 0.00 | 0.00 | 0.00 | 28 | 1006.0 |
| 20260504173522 | 23 | 74 | 9.7 | 25.7 | 0.00 | 0.00 | 0.00 | 29 | 1006.1 |
| 20260504173038 | 23 | 41 | 6.4 | 16.1 | 0.00 | 0.00 | 0.00 | 28 | 1006.2 |
| 20260504172521 | 23 | 71 | 8.0 | 14.5 | 0.00 | 0.00 | 0.00 | 28 | 1006.2 |
| 20260504172022 | 23 | 62 | 3.2 | 14.5 | 0.00 | 0.00 | 0.00 | 29 | 1006.3 |
| 20260504171539 | 22 | 28 | 4.8 | 16.1 | 0.00 | 0.00 | 0.00 | 31 | 1006.3 |
| 20260504171021 | 22 | 360 | 6.4 | 16.1 | 0.00 | 0.00 | 0.00 | 30 | 1006.3 |
| 20260504170521 | 22 | 337 | 6.4 | 14.5 | 0.00 | 0.00 | 0.00 | 30 | 1006.4 |
| 20260504151021 | 17 | 321 | 9.7 | 19.3 | 0.00 | 0.00 | 0.00 | 42 | 1006.4 |
| 20260504150522 | 17 | 307 | 11.3 | 22.5 | 0.00 | 0.00 | 0.00 | 44 | 1006.4 |
| 20260504141023 | 12 | 321 | 12.9 | 22.5 | 0.00 | 0.00 | 0.00 | 53 | 1006.6 |
| 20260504140524 | 12 | 306 | 16.1 | 24.1 | 0.00 | 0.00 | 0.00 | 53 | 1006.6 |
| 20260504130523 | 10 | 322 | 9.7 | 22.5 | 0.00 | 0.00 | 0.00 | 65 | 1006.5 |
| 20260504110521 | 6 | 274 | 16.1 | 19.3 | 0.00 | 0.00 | 0.00 | 71 | 1006.0 |
| 20260504100519 | 8 | 269 | 17.7 | 20.9 | 0.00 | 0.00 | 0.00 | 66 | 1006.3 |
| 20260504081551 | 8 | 313 | 6.4 | 12.9 | 0.00 | 0.00 | 0.00 | 62 | 1007.1 |
| 20260504081024 | 8 | 283 | 6.4 | 17.7 | 0.00 | 0.00 | 0.00 | 63 | 1007.1 |
| 20260504080523 | 8 | 234 | 11.3 | 17.7 | 0.00 | 0.00 | 0.00 | 64 | 1007.1 |